Probability
0 0 0 0 0 0 0 0 0 0 0 0 0 0 0 0 0 0 1 2 2 2 2 2 1 1 2 2 1 0 0 0 0 0 0 2 4 5 4 2 1 0 0
0 0 0 0 0 0 0 0 0 0 1 1 1 1 1 1 1 1 2 2 1 1 1 1 1 0 1 1 0 0 0 1 1 1 1 2 4 4 3 2 1 0 0
0 0 0 0 0 0 0 0 0 1 2 2 2 2 2 2 2 3 3 2 1 1 2 2 2 1 0 0 1 1 1 2 3 3 3 3 3 3 2 1 0 0 0
1 1 1 0 0 0 0 0 1 2 3 3 3 2 3 3 3 3 3 3 3 3 3 3 2 1 0 1 2 3 3 3 4 4 4 3 3 3 3 2 2 1 0
1 1 1 1 0 0 0 0 1 2 2 2 2 2 2 3 3 3 3 3 3 3 3 3 2 1 1 2 3 4 4 4 4 4 4 3 3 3 3 3 3 2 1
1 0 0 0 0 0 0 0 0 1 1 0 1 1 1 2 2 3 3 3 3 3 3 3 2 2 2 3 3 3 4 5 5 4 4 3 3 3 3 3 3 2 1
1 0 0 0 0 0 0 0 0 0 0 0 0 0 0 1 1 1 2 3 3 3 3 3 3 3 3 3 3 3 3 3 4 3 3 3 3 3 3 3 3 1 0
0 0 0 0 0 0 0 0 0 0 0 0 0 0 0 1 0 0 1 2 2 3 3 3 3 3 3 3 2 1 2 2 2 2 1 1 2 3 3 3 2 1 0
1 1 1 1 2 1 1 0 0 0 0 0 1 1 0 0 0 1 1 1 1 1 2 3 3 3 3 3 2 1 0 1 2 1 0 0 1 1 2 2 2 1 0
2 2 2 3 3 3 2 1 1 2 1 1 2 2 1 1 1 2 2 2 1 0 1 3 3 3 3 3 3 1 0 0 1 1 0 0 0 0 1 1 1 0 0
3 3 3 3 3 3 3 3 3 3 3 3 3 3 3 2 2 2 2 2 1 1 2 3 3 3 3 4 4 2 0 0 0 0 0 0 0 0 0 0 0 0 0
3 2 1 2 2 2 3 3 4 4 5 5 4 3 3 3 3 2 2 3 3 4 5 5 5 4 3 4 4 3 1 0 0 0 0 0 0 0 0 0 0 0 0
3 2 1 1 1 1 1 2 3 4 5 6 5 4 4 4 4 4 3 4 5 7 8 8 7 6 5 6 6 4 1 0 0 0 0 0 0 0 0 0 0 1 1
3 2 1 0 0 0 0 1 2 3 4 5 6 6 5 5 5 6 6 6 7 9 10 10 10 9 8 9 8 5 2 1 0 0 0 0 0 0 0 0 0 0 0
4 2 1 1 1 1 1 2 3 3 3 4 4 5 6 6 7 8 8 9 10 10 11 12 12 12 11 10 9 8 6 2 0 0 0 0 0 0 0 0 0 0 0
6 6 5 5 5 4 3 4 5 5 4 3 3 5 6 6 7 8 10 12 14 14 14 14 15 15 14 12 10 10 9 5 1 0 0 0 0 0 0 0 0 0 0
9 10 10 10 8 7 7 8 7 6 6 5 4 6 7 8 8 9 10 14 17 18 18 16 16 16 16 15 13 13 11 6 2 1 0 0 0 0 0 0 0 0 0
11 12 13 12 10 9 11 12 10 9 9 8 7 8 9 9 10 11 13 15 17 20 20 19 18 17 17 17 17 15 12 8 4 1 0 0 0 0 0 0 0 0 0
15 15 15 15 15 15 15 15 16 15 13 12 12 12 11 11 13 16 17 17 18 19 20 21 20 18 17 18 18 17 14 12 7 3 1 0 0 0 0 0 0 0 0
20 20 20 20 20 18 16 17 19 20 19 18 17 16 14 15 17 19 20 20 19 19 20 21 20 19 18 19 20 19 16 15 12 7 4 2 1 0 0 0 0 0 0
21 22 22 22 21 17 13 15 20 23 24 25 24 22 20 21 20 19 18 18 19 20 21 21 20 20 20 21 22 20 17 17 16 13 10 7 4 2 1 0 0 0 0
20 20 21 20 18 15 11 11 16 23 28 30 30 27 26 25 22 18 14 12 15 18 20 21 22 22 23 22 21 20 18 18 18 17 15 13 9 6 4 2 0 0 0
19 19 19 18 17 14 10 7 11 19 27 31 32 30 29 27 25 22 17 13 14 16 16 19 22 23 23 22 21 20 19 19 19 19 17 16 14 11 8 4 1 0 0
20 20 19 18 17 14 9 4 7 17 26 31 33 32 31 29 27 25 23 21 21 19 15 13 15 17 17 17 18 19 19 18 19 19 17 16 15 13 10 8 4 1 0
22 22 21 21 21 19 11 4 6 18 27 32 34 33 30 29 27 24 25 28 28 24 16 10 8 8 8 9 11 14 17 17 17 18 18 16 14 12 11 10 7 4 1
25 23 23 24 24 23 16 6 7 18 28 32 35 33 27 27 25 22 26 30 29 26 18 10 5 4 4 3 5 10 14 15 16 17 19 17 13 11 9 8 9 7 4
Wind_Speed
2 2 2 1 1 2 2 1 1 2 1 2 2 2 2 3 2 2 4 6 3 2 2 2 3 4 4 4 4 5 5 5 5 5 6 6 7 8 8 9 9 9 10
3 2 2 2 2 2 2 1 2 2 1 2 2 2 2 2 2 1 2 5 5 3 2 2 2 2 3 3 3 3 4 4 4 4 5 6 7 8 8 8 8 8 9
2 1 2 2 2 2 2 1 2 1 2 2 2 2 2 1 2 2 1 1 3 6 4 3 2 2 2 2 2 2 2 2 2 3 4 6 7 8 8 8 8 8 7
2 1 1 2 1 1 1 1 1 1 2 1 2 1 2 2 2 1 1 1 1 3 6 5 3 2 2 2 2 1 1 1 1 2 3 5 7 8 8 9 9 8 8
2 1 1 2 1 1 1 1 3 1 2 2 2 2 1 1 1 2 2 2 2 2 3 6 5 3 2 1 1 1 0 0 1 1 2 4 6 7 8 9 9 9 8
2 0 1 2 0 1 1 1 1 1 1 0 1 2 1 1 1 2 0 1 2 2 2 2 3 5 4 2 1 1 1 0 0 1 2 3 4 6 7 8 8 9 9
1 0 1 1 0 1 1 0 0 2 1 1 1 1 2 2 1 1 0 1 1 1 1 1 0 0 3 7 4 2 1 1 1 1 1 2 2 4 5 7 8 8 8
0 1 0 1 0 1 1 1 0 0 1 1 1 1 2 3 2 2 1 1 0 0 1 1 1 0 2 1 5 4 2 1 1 1 0 1 1 1 3 5 6 7 7
1 1 0 1 0 1 1 1 1 1 1 1 1 3 2 1 1 2 1 1 1 1 1 1 0 0 1 1 1 5 3 2 1 1 0 1 1 0 1 3 3 5 6
2 1 1 0 1 1 1 2 1 1 2 1 1 1 3 3 2 0 2 2 1 0 1 2 1 1 0 0 1 3 3 2 2 2 1 1 1 1 1 2 4 5 6
2 1 1 1 1 1 0 1 0 2 1 2 1 0 0 1 3 2 1 1 1 0 0 1 1 1 0 0 1 3 4 3 2 2 2 1 1 2 2 3 3 5 6
3 3 2 1 2 1 1 1 1 1 1 2 2 2 1 1 2 2 2 2 1 0 0 1 1 1 1 0 2 5 4 3 2 2 2 2 2 2 2 3 3 4 5
3 3 2 2 2 1 1 1 2 1 1 1 2 2 2 2 2 2 3 2 2 1 1 1 1 1 1 1 2 4 5 4 3 2 2 2 2 1 1 2 2 3 4
2 2 2 3 3 3 2 1 2 2 1 2 3 2 2 1 2 2 3 3 3 2 1 1 1 0 1 1 3 3 3 6 4 3 2 2 2 2 1 2 2 2 2
2 3 3 3 3 3 2 2 2 2 1 3 2 2 2 1 2 2 2 3 4 4 2 1 1 1 1 0 2 2 1 5 4 3 3 2 2 2 2 2 2 2 2
3 3 3 3 3 3 3 3 3 2 2 2 2 2 2 2 2 2 2 2 3 4 3 1 1 0 1 2 2 2 2 6 6 5 4 4 4 3 3 3 3 4 4
4 4 4 4 3 3 3 3 3 2 3 2 2 2 2 3 3 3 2 2 3 3 4 2 1 0 1 3 1 3 3 4 5 8 6 5 5 5 5 5 5 5 5
5 4 4 4 4 4 4 4 3 3 3 3 3 2 3 2 3 3 3 3 3 3 4 4 3 2 3 3 3 5 3 3 4 8 9 8 7 6 6 6 6 6 6
5 5 5 5 4 4 4 4 4 4 4 3 3 3 3 3 4 3 4 4 3 3 3 4 4 2 3 2 4 5 5 4 6 5 10 10 10 9 8 8 7 7 7
5 5 5 5 5 4 4 4 4 4 4 4 4 4 4 4 4 4 4 4 4 4 4 5 4 3 3 3 4 5 4 4 5 4 4 5 9 12 11 10 9 8 8
5 5 5 5 5 5 4 4 5 5 5 5 5 5 5 4 3 4 5 4 4 5 4 4 4 4 4 3 4 4 5 4 4 4 4 4 5 6 8 10 10 9 9
5 5 5 5 5 3 1 2 5 5 5 5 5 5 6 6 5 6 6 6 6 6 6 6 5 5 5 5 4 5 5 5 5 3 5 6 5 5 5 5 7 9 10
6 5 5 5 5 3 2 3 5 6 6 5 5 6 6 3 5 5 6 9 8 8 8 8 7 7 6 5 5 7 6 7 7 5 5 6 5 6 5 4 8 10 10
5 5 5 5 5 4 4 5 6 7 6 6 6 6 6 6 5 5 6 6 6 6 7 7 7 7 7 5 6 8 8 8 8 6 5 7 6 5 5 4 8 10 11
5 6 5 6 6 5 5 6 6 6 6 7 7 6 7 7 3 4 7 7 7 6 7 7 7 7 7 7 7 7 6 7 7 6 4 7 6 6 6 6 5 10 11
6 6 5 6 6 6 5 6 7 7 6 6 6 7 6 7 4 5 8 7 8 7 7 6 7 8 9 8 9 9 8 8 7 6 3 5 6 6 6 5 5 4 6
Wind_Direction
104 104 101 103 103 109 134 124 90 94 104 109 85 71 52 54 47 47 102 112 114 121 155 173 177 188 192 195 201 202 205 214 223 218 214 210 207 202 202 205 210 208 207
93 109 122 106 93 83 70 85 97 115 96 88 84 74 50 52 72 39 92 126 129 122 123 141 158 173 181 183 193 204 214 223 227 221 217 211 205 202 204 204 207 211 207
99 113 110 119 90 96 114 120 106 109 115 112 102 97 91 55 74 71 53 67 134 134 128 128 131 147 160 169 170 179 192 214 237 235 224 214 205 202 204 205 208 210 208
106 119 109 95 102 120 118 109 94 84 83 88 94 78 85 92 77 82 88 82 75 110 132 129 127 128 149 173 181 179 181 214 239 234 225 215 207 205 205 207 209 209 210
111 114 82 78 134 92 69 42 80 48 75 71 108 108 89 85 87 92 79 82 91 90 110 133 140 131 136 177 176 180 161 252 238 232 224 215 213 212 210 210 209 209 210
111 110 124 96 45 89 77 61 79 74 69 51 56 79 79 84 93 91 128 108 92 84 77 100 154 158 163 164 165 196 216 251 283 254 247 233 223 217 211 208 207 208 211
93 336 53 109 273 83 32 78 53 137 119 88 185 160 143 138 86 107 91 52 97 86 84 81 12 356 164 168 174 189 219 247 275 264 246 247 241 226 214 210 206 209 211
183 175 79 219 121 136 145 136 196 293 119 146 291 259 176 157 150 90 112 139 94 120 127 114 88 345 305 181 134 161 191 238 264 270 265 232 233 242 214 212 210 209 208
190 344 257 295 284 252 124 181 208 221 220 187 297 308 311 32 116 134 118 74 21 353 324 31 170 175 250 277 165 154 171 199 234 235 208 186 191 215 208 205 208 200 196
196 205 226 258 288 296 128 228 126 243 247 237 166 300 326 351 310 161 170 138 141 251 346 317 318 168 212 227 113 92 150 181 215 234 229 213 185 184 191 203 214 207 200
200 215 202 238 254 260 36 332 85 274 263 295 290 241 237 224 264 287 310 278 170 150 245 278 317 316 347 261 200 108 147 175 197 220 231 231 229 223 218 215 219 216 210
187 190 201 221 239 252 207 248 255 215 289 313 304 302 283 286 279 285 273 266 315 339 335 346 283 288 288 285 87 99 141 163 183 199 214 221 234 240 230 219 223 227 221
187 180 210 217 241 245 242 246 233 268 247 256 267 284 294 294 304 307 296 299 292 261 215 239 249 281 286 309 98 127 157 162 174 179 194 208 215 222 209 203 219 228 224
198 160 201 210 224 238 246 230 245 228 230 252 261 279 279 276 282 284 297 298 290 269 217 266 242 214 306 291 77 210 162 158 175 184 192 198 197 196 192 214 236 239 234
198 187 207 210 212 222 242 248 257 262 252 255 256 230 258 269 259 268 274 281 293 294 296 190 239 152 255 296 106 241 242 137 170 185 194 204 208 203 213 218 228 233 234
209 206 209 214 217 219 222 237 239 225 246 252 275 302 286 279 270 257 255 264 274 288 299 313 289 335 4 288 146 258 248 160 180 191 199 208 212 215 222 223 227 231 230
203 209 216 218 218 219 222 226 247 235 240 244 248 240 252 289 290 281 265 256 263 272 274 282 268 153 249 276 241 255 243 236 187 181 195 205 213 218 224 231 232 231 234
204 204 212 219 226 218 219 224 237 240 238 239 247 252 259 257 260 277 283 276 276 280 273 279 274 240 233 247 250 258 255 248 251 172 189 202 211 218 224 228 233 233 232
201 205 206 214 223 225 223 225 229 238 242 244 247 250 257 262 262 265 270 274 270 260 263 265 266 274 258 253 257 256 256 261 263 191 190 202 210 216 220 224 228 232 233
202 206 211 215 220 225 229 231 229 233 241 245 249 253 256 258 261 265 258 264 271 271 257 260 263 255 250 245 257 264 256 234 255 254 227 216 207 211 216 219 223 230 232
202 203 209 212 218 224 230 235 237 231 237 243 245 248 250 258 277 277 282 274 268 266 262 259 263 266 261 256 259 265 272 271 249 251 261 244 220 223 213 215 220 228 231
203 205 212 217 225 232 156 253 261 248 246 247 249 251 242 227 230 231 250 263 274 269 275 274 267 270 271 268 271 272 276 276 271 243 262 262 253 247 237 230 197 208 220
201 208 215 219 223 217 185 219 245 251 249 249 250 255 262 247 238 251 233 227 235 243 253 268 277 276 274 274 277 270 271 279 282 283 267 267 260 256 251 226 186 200 213
203 210 217 221 226 217 194 216 239 239 246 247 247 248 255 263 257 263 262 256 253 241 238 246 268 273 275 277 267 268 272 266 262 255 256 269 269 266 265 247 189 200 210
207 213 217 222 226 221 200 211 237 241 239 244 248 247 251 251 240 254 258 261 262 255 227 228 244 255 264 264 268 270 266 264 267 261 244 262 271 272 267 260 217 199 210
214 220 219 227 231 233 202 206 233 249 248 248 239 236 233 249 231 225 251 258 262 265 269 249 238 239 244 238 231 249 266 269 274 273 256 260 269 275 270 259 256 231 219